Location: Narrabri
(30.3170°S, 149.7830°E)
Time: 04:45:03
(UTC+11:00)

Envisat - Pass Details

Date: 07 October 2017
Orbit: 764 x 766 km, 98.2° (Epoch: 21 October)

Event Time Altitude Azimuth Distance (km) Brightness Sun altitude
Rises 20:49:51 0° 155° (SSE) 3,262 6.2 -22.6°
Reaches altitude 10° 20:52:26 10° 145° (SE) 2,327 5.4 -23.1°
Enters shadow 20:52:54 12° 142° (SE) 2,165 5.2 -23.2°
